Location: Vancouver
(49.2827°N, 123.1207°W)
Time: 02:18:06
(UTC-07:00)

Envisat - Pass Details

Date: 26 May 2024
Orbit: 762 x 764 km, 98.3° (Epoch: 19 June)

Event Time Altitude Azimuth Distance (km) Brightness Sun altitude
Rises 04:18:25 0° 17° (NNE) 3,240 7.5 -7.9°
Reaches altitude 10° 04:20:47 10° 22° (NNE) 2,309 6.8 -7.7°
Maximum altitude 04:25:47 57° 101° (E) 900 3.6 -7.1°
Drops below altitude 10° 04:30:45 10° 179° (S) 2,291 5.1 -6.5°
Sets 04:33:05 0° 184° (S) 3,212 5.8 -6.2°
